Terminal Aerodrome Forecast
Issued by NWS

Home | Current Version | Previous Version | Graphics & Text | Print | Product List | Glossary On
Versions: 1 2 3 4 5 6 7 8 9 10 11 12 13 14 15 16 17 18
448
FTUS41 KCLE 041536 AAA
TAFFDY
TAF AMD
KFDY 041536Z 0416/0512 25010KT P6SM BKN015 OVC035
     FM050000 27009KT P6SM SKC=

USA.gov is the U.S. government's official web portal to all federal, state and local government web resources and services.